Content
SEND FEEDBACK

Daily
Averages
Monthly
Summary
United States of America

NEWBERRY, SOUTH CAROLINA


Home > North America > United States > South Carolina
Elevation: 495 feet     Latitude: 34 17N     Longitude: 081 37W

WEATHER
 
SELECT A DAY
Number of Records: 129,159;   Date Range: 12/16/08 - 7/27/14
 
SHARE

PRINT THIS DATA

[ ← Previous Day ]
WEATHER ALMANAC - FEBRUARY 13, 2013
[ Next Day → ]
[ °C ]   °F
Weather ElementAverageHighLow
Temperature47.6 °F51.8 °F (4:35 pm)42.8 °F (11:55 pm)
Dewpoint46.5 °F50 °F (12:55 pm)41 °F (10:55 pm)
Humidity96.3 %100 % (12:55 am)76 % (7:55 pm)
Barometer29.82 in29.92 in (11:35 pm)29.72 in (12:55 pm)
Wind Speed7.5 mph18.4 mph (2:35 pm)
Wind Gust27.6 mph (2:15 pm)
Weather ElementAverage
Visibility7.1 mi
Wind DirectionSSE (167.8 °)

Weather ElementTotal
Precipitation0.06 in
Heating Degree Days17.7 (Base 65)
Averaged from 68 records on February 13, 2013
WEATHER CONDITIONS BREAKOUT
WIND DIRECTION BREAKOUT
WEATHER BY HOUR - FEBRUARY 13, 2013
[ °C ]   °F
Local TimeTemperatureDewpointHumidityBarometerVisibilityWind DirectionWind SpeedGust SpeedPrecipitationEventsConditions
12:55 AM46.4 °F46.4 °F100 %29.91 in10.0 miEast (80°)4.6 mph0.04 inRainRain
1:15 AM46.4 °F46.4 °F100 %29.89 in10.0 miEast (90°)3.5 mphThunderstormOvercast
1:35 AM46.4 °F46.4 °F100 %29.88 in10.0 miNE (40°)4.6 mphOvercast
1:55 AM46.4 °F46.4 °F100 %29.88 in10.0 miNNE (30°)6.9 mphOvercast
2:15 AM46.4 °F46.4 °F100 %29.87 in10.0 miNE (50°)3.5 mphOvercast
2:35 AM46.4 °F46.4 °F100 %29.87 in10.0 miNNE (30°)5.8 mphThunderstormOvercast
2:55 AM46.4 °F46.4 °F100 %29.87 in10.0 miNNE (30°)5.8 mphRainRain
3:15 AM46.4 °F46.4 °F100 %29.86 in7.0 miNNE (30°)4.6 mphDrizzle
3:35 AM46.4 °F46.4 °F100 %29.86 in5.0 miNNE (30°)8.1 mphLight Drizzle
3:55 AM46.4 °F46.4 °F100 %29.86 in5.0 miNNE (30°)6.9 mph0.01 inDrizzle
4:15 AM44.6 °F44.6 °F100 %29.85 in7.0 miNNE (30°)8.1 mphOvercast
4:35 AM44.6 °F44.6 °F100 %29.83 in5.0 miNE (40°)5.8 mphOvercast
4:55 AM44.6 °F44.6 °F100 %29.83 in5.0 miNE (40°)6.9 mphOvercast
5:15 AM44.6 °F44.6 °F100 %29.82 in5.0 miNE (40°)6.9 mphOvercast
5:35 AM44.6 °F44.6 °F100 %29.81 in7.0 miNE (50°)5.8 mphOvercast
5:55 AM46.4 °F46.4 °F100 %29.82 in7.0 miNE (40°)4.6 mphOvercast
6:15 AM46.4 °F46.4 °F100 %29.83 in7.0 miNE (50°)4.6 mphOvercast
6:35 AM46.4 °F46.4 °F100 %29.81 in4.0 miNNE (30°)4.6 mphOvercast
6:55 AM46.4 °F46.4 °F100 %29.82 in2.5 miNE (40°)4.6 mphOvercast
7:15 AM46.4 °F46.4 °F100 %29.81 in2.5 miENE (60°)4.6 mphOvercast
7:35 AM46.4 °F46.4 °F100 %29.83 in3.0 miNNE (30°)4.6 mphOvercast
7:55 AM44.6 °F44.6 °F100 %29.82 in2.5 miEast (100°)3.5 mphOvercast
8:15 AM46.4 °F46.4 °F100 %29.81 in1.8 miSE (130°)4.6 mphOvercast
8:35 AM46.4 °F46.4 °F100 %29.82 in2.5 miNE (50°)3.5 mphOvercast
8:55 AM46.4 °F46.4 °F100 %29.83 in2.0 miNorth (350°)3.5 mphOvercast
9:15 AM46.4 °F46.4 °F100 %29.78 in1.8 miEast (90°)4.6 mphOvercast
9:35 AM46.4 °F46.4 °F100 %29.79 in2.0 miEast (100°)3.5 mphOvercast
9:55 AM46.4 °F46.4 °F100 %29.81 in1.5 miNorth (360°)3.5 mphOvercast
10:15 AM46.4 °F46.4 °F100 %29.79 in1.2 miNNE (30°)3.5 mphOvercast
10:35 AM46.4 °F46.4 °F100 %29.81 in1.5 miNorth (350°)3.5 mphOvercast
10:55 AM46.4 °F46.4 °F100 %29.80 in1.2 miNorth (360°)3.5 mphOvercast
11:15 AM46.4 °F46.4 °F100 %29.77 in1.2 miCalmLight Drizzle
11:55 AM46.4 °F46.4 °F100 %29.76 in1.8 miCalm0.01 inOvercast
12:15 PM48.2 °F48.2 °F100 %29.76 in1.5 miCalmOvercast
12:35 PM48.2 °F48.2 °F100 %29.78 in1.2 miWest (260°)9.2 mphOvercast
12:55 PM50.0 °F50.0 °F100 %29.72 in2.0 miSW (230°)5.8 mph18.4 mphOvercast
1:15 PM50.0 °F50.0 °F100 %29.75 in7.0 miWSW (240°)8.1 mph16.1 mphOvercast
1:35 PM50.0 °F50.0 °F100 %29.75 in5.0 miWest (260°)12.7 mph19.6 mphOvercast
1:55 PM50.0 °F50.0 °F100 %29.76 in10.0 miWSW (240°)13.8 mph19.6 mphOvercast
2:15 PM50.0 °F50.0 °F100 %29.76 in10.0 miWSW (250°)16.1 mph27.6 mphOvercast
2:35 PM50.0 °F50.0 °F100 %29.76 in10.0 miWSW (250°)18.4 mph24.2 mphOvercast
2:55 PM50.0 °F50.0 °F100 %29.76 in10.0 miWSW (250°)15.0 mph23.0 mphOvercast
3:15 PM50.0 °F50.0 °F100 %29.76 in10.0 miWSW (240°)18.4 mph23.0 mphOvercast
3:35 PM50.0 °F50.0 °F100 %29.76 in10.0 miWSW (240°)16.1 mph20.7 mphMostly Cloudy
3:55 PM50.0 °F48.2 °F94 %29.76 in10.0 miWSW (240°)16.1 mph21.9 mphScattered Clouds
4:15 PM50.0 °F50.0 °F100 %29.76 in10.0 miSW (230°)11.5 mph17.3 mphClear
4:35 PM51.8 °F50.0 °F94 %29.76 in10.0 miWSW (240°)11.5 mphClear
4:55 PM51.8 °F50.0 °F94 %29.76 in10.0 miSW (230°)11.5 mph18.4 mphClear
5:15 PM51.8 °F50.0 °F94 %29.78 in10.0 miSW (230°)12.7 mphClear
5:35 PM51.8 °F50.0 °F94 %29.77 in10.0 miSW (230°)10.4 mph17.3 mphClear
5:55 PM50.0 °F50.0 °F100 %29.78 in10.0 miSW (220°)10.4 mphClear
6:15 PM51.8 °F50.0 °F94 %29.78 in10.0 miWSW (240°)12.7 mphClear
6:35 PM51.8 °F50.0 °F94 %29.78 in10.0 miWSW (240°)10.4 mph16.1 mphClear
6:55 PM51.8 °F50.0 °F94 %29.80 in10.0 miWSW (250°)13.8 mphClear
7:15 PM50.0 °F46.4 °F87 %29.80 in10.0 miWest (260°)11.5 mph17.3 mphClear
7:35 PM50.0 °F44.6 °F82 %29.82 in10.0 miWest (270°)10.4 mph18.4 mphClear
7:55 PM50.0 °F42.8 °F76 %29.83 in10.0 miWest (260°)10.4 mph17.3 mphClear
8:15 PM50.0 °F42.8 °F76 %29.83 in10.0 miWest (260°)9.2 mphClear
8:35 PM48.2 °F42.8 °F82 %29.84 in10.0 miWest (270°)9.2 mph16.1 mphClear
8:55 PM46.4 °F42.8 °F87 %29.86 in10.0 miWest (260°)8.1 mphClear
9:15 PM46.4 °F42.8 °F87 %29.86 in10.0 miWest (260°)8.1 mphClear
9:55 PM46.4 °F42.8 °F87 %29.89 in10.0 miWNW (290°)5.8 mphClear
10:15 PM46.4 °F42.8 °F87 %29.89 in10.0 miWest (270°)5.8 mphClear
10:35 PM46.4 °F42.8 °F87 %29.90 in10.0 miWest (280°)6.9 mphClear
10:55 PM44.6 °F41.0 °F87 %29.90 in10.0 miWest (270°)4.6 mphClear
11:15 PM44.6 °F41.0 °F87 %29.91 in10.0 miWest (280°)4.6 mphClear
11:35 PM44.6 °F42.8 °F93 %29.92 in10.0 miWest (280°)4.6 mphClear
11:55 PM42.8 °F41.0 °F93 %29.92 in10.0 miWest (280°)4.6 mphClear
Hourly data recorded from KEOE, located miles away from Newberry, South Carolina







STORIES FROM OUR PARTNERS